Flag for Paraguay Weather past 2 weeks in Asuncion, Paraguay

Now
63 °F

Drizzle. Mostly cloudy.


Feels Like: 63 °F
Forecast: N/A
Wind: 6 mph from Southwest

Location: Asuncion / Aeropuerto

Current Time: Jul 6, 2015 at 6:46:53 PM

Latest Report: Jul 6, 2015 at 6:00 PM


Visibility: 4 mi

Pressure: 29.86 "Hg

Humidity: 100%

Dew point: 63 °F

Location of AsuncionLocation

Historic Weather in Asuncion — Graph

°F

Asuncion temperature yesterday

Maximum temperature yesterday: 64 °F (at 2:00 PM)
Minimum temperature yesterday: 43 °F (at 7:00 AM)
Average temperature yesterday: 54 °F

Past Weeks' High & Low Weather Summary

 TemperatureHumidityPressure
High84 °F (Jun 22, 2:00 PM)100% (Jun 21, 8:00 PM)30.30 "Hg (Jun 21, 8:00 PM)
Low43 °F (Jul 5, 7:00 AM)52% (Jul 5, 2:00 PM)29.74 "Hg (Jun 29, 3:00 PM)
Average65 °F83%30.05 "Hg
* Reported Jun 21 5:00 PM — Jul 6 5:00 PM, Asuncion, Weather by CustomWeather, © 2015

Note: Actual official high and low records may vary slightly from our data, if they occured in-between our weather recording intervals... More about our weather records

Advertising

Asuncion weather history for previous 24 hours

 ConditionsComfort  
Time TempWeatherWind HumidityBarometerVisibility
5:00 PM
Mon, Jul 6
63 °FDrizzle. Mostly cloudy.3 mph100%29.83 "Hg2 mi
4:00 PM63 °FRain. Mostly cloudy.3 mph94%29.83 "Hg4 mi
3:00 PM63 °FLight rain. Mostly cloudy.5 mph94%29.86 "HgN/A
2:00 PM63 °FLight rain. Mostly cloudy.3 mph94%29.86 "HgN/A
1:00 PM64 °FLight rain. Mostly cloudy.2 mph88%29.89 "HgN/A
12:00 PM64 °FRain. Overcast.2 mph88%29.92 "Hg6 mi
11:00 AM64 °FOvercast.5 mph83%29.92 "HgN/A
10:00 AM64 °FOvercast.6 mph83%29.95 "HgN/A
9:30 AM64 °FOvercast.6 mph78%29.92 "HgN/A
9:00 AM63 °FMostly cloudy.6 mph83%29.92 "HgN/A
8:30 AM63 °FMostly cloudy.6 mph83%29.92 "HgN/A
8:00 AM63 °FMore clouds than sun.5 mph83%29.92 "HgN/A
7:30 AM61 °FMore clouds than sun.6 mph88%29.92 "HgN/A
7:00 AM61 °FPartly sunny.5 mph88%29.89 "HgN/A
6:00 AM61 °FPassing clouds.6 mph88%29.86 "HgN/A
5:00 AM61 °FPassing clouds.9 mph88%29.86 "HgN/A
3:00 AM61 °FPassing clouds.7 mph88%29.89 "HgN/A
2:00 AM61 °FPassing clouds.7 mph83%29.89 "HgN/A
1:00 AM61 °FPassing clouds.7 mph83%29.89 "HgN/A
12:00 AM61 °FClear.3 mph77%29.92 "Hg10 mi
11:00 PM
Sun, Jul 5
59 °FClear.2 mph77%29.92 "Hg10 mi
10:00 PM59 °FClear.2 mph77%29.92 "Hg10 mi
9:00 PM59 °FClear.2 mph82%29.92 "Hg10 mi
8:00 PM59 °FClear.2 mph82%29.95 "Hg10 mi
7:00 PM59 °FClear.3 mph77%29.95 "Hg10 mi
6:00 PM59 °FClear.2 mph72%29.95 "Hg10 mi
Weather by CustomWeather, © 2015

See weather overviewHow to use our weather pages